Location: Godiavel Galaoual
(15.2485°N, 12.6604°W)
Time: 11:07:32
(UTC+00:00)

Transit 2A - Visible Passes

Search period start: 13 June 2021 00:00
Search period end: 23 June 2021 00:00
Orbit: 601 x 958 km, 66.7° (Epoch: 13 June)

Date Brightness Start Highest point End Pass type
(mag) Time Alt. Az. Time Alt. Az. Time Alt. Az.
13 Jun 6.2 04:47:36 10° NNW 04:53:00 81° ENE 04:58:57 10° SSE visible
14 Jun 7.0 04:13:38 10° N 04:18:51 50° ENE 04:24:33 10° SE visible
15 Jun 7.8 03:39:57 10° N 03:44:42 31° ENE 03:49:49 10° SE visible
15 Jun 7.3 05:23:28 10° WNW 05:27:39 22° WSW 05:32:08 10° SSW visible
16 Jun 8.4 03:06:40 10° NNE 03:10:30 19° ENE 03:14:07 11° ESE visible
16 Jun 6.7 04:48:32 10° NW 04:53:31 35° WSW 04:54:05 34° WSW visible
17 Jun 8.9 02:34:23 10° NE 02:36:16 12° ENE 02:36:27 12° ENE visible
17 Jun 7.3 04:14:00 10° NNW 04:16:44 30° NW 04:16:44 30° NW visible
18 Jun 8.1 03:39:44 10° NNW 03:41:13 19° NNW 03:41:13 19° NNW visible
19 Jun 8.6 03:05:44 10° N 03:06:20 13° N 03:06:20 13° N visible
